Regional Weather Roundup
Issued by NWS

Home | Current Version | Previous Version | Text Only | Print | Product List | Glossary Off
Versions: 1 2 3 4 5 6 7 8 9 10 11 12 13 14 15 16 17 18 19 20 21 22 23 24 25 26 27 28 29 30 31 32 33 34 35 36 37 38 39 40 41 42 43 44 45

000
ASUS45 KBOI 250910
RWRID
WEATHER ROUNDUP FOR IDAHO
NATIONAL WEATHER SERVICE BOISE ID
200 AM MST THU DEC 25 2014

NOTE: "FAIR" INDICATES FEW OR NO CLOUDS BELOW 12000 FEET
WITH NO SIGNIFICANT WEATHER AND/OR OBSTRUCTIONS TO VISIBILITY

IDZ012-014-251000-
SOUTHWEST IDAHO


CITY           SKY/WX    TMP DP  RH WIND       PRES   REMARKS
BOISE          CLOUDY    32  25  75 NW23G30   29.72R WCI  19
CALDWELL       CLOUDY    34  19  55 SW21      29.77S WCI  22
MOUNTAIN HOME  CLOUDY    32  24  71 NW33G43   29.65R WCI  17
$$

IDZ016-017-251000-
SOUTHCENTRAL IDAHO


CITY           SKY/WX    TMP DP  RH WIND       PRES   REMARKS
JEROME         SNOW      28  26  92 W32G48    29.48R VSB 1/2 WCI  12
TWIN FALLS     SNOW      29  25  85 W45G62    29.50R VSB 1/4 WCI  11
$$

IDZ019>023-251000-
SOUTHEAST IDAHO


CITY           SKY/WX    TMP DP  RH WIND       PRES   REMARKS
IDAHO FALLS    LGT SNOW  29  27  92 S15       29.40S FOG     WCI  18
POCATELLO      LGT SNOW  29  29 100 SW22G30   29.43S VSB 1   WCI  15
REXBURG        SNOW      29  29 100 VRB7      29.38S VSB 1/2 WCI  22
$$

IDZ006-010-011-018-031-032-251000-
CENTRAL IDAHO MOUNTAINS


CITY           SKY/WX    TMP DP  RH WIND       PRES   REMARKS
MCCALL         FLURRIES  26  21  81 NW5       29.63R WCI  20
HAILEY         CLOUDY    32  23  69 NW20G26   29.40R WCI  20
STANLEY          N/A     23  15  71 NW13G21   29.53R WCI  11
SALMON         CLOUDY    30  23  74 CALM      29.56R
CHALLIS        CLOUDY    27  19  72 N5        29.52R WCI  22
$$

IDZ002-004-006-007-026-251000-
NORTHERN IDAHO


CITY           SKY/WX    TMP DP  RH WIND       PRES   REMARKS
LEWISTON       MOCLDY    38  28  67 W12G22    29.86R WCI  30
LOWELL           N/A     36  35  96 S5        29.80R WCI  32
COEUR D`ALENE  CLOUDY    30  30 100 N7        29.81R WCI  23
MULLAN PASS    FOG       24  20  84 N6        29.64R VSB 1   WCI  17
$$


USA.gov is the U.S. government's official web portal to all federal, state and local government web resources and services.